Abha, Saudi Arabia

2:34 PM +03 on September 21, 2019 (GMT +0300)
Abha

Weather History for OEAB - August, 2019

Change the Weather History Date:

Monday, August 19, 2019

  Actual Average Record
Temperature  
Mean Temperature 76 °F -  
Max Temperature 86 °F 82 °F 91 °F (2017)
Min Temperature 65 °F 60 °F 60 °F (1997)
Cooling Degree Days 10    
Growing Degree Days 26 (Base 50)    
Moisture  
Dew Point 50 °F    
Average Humidity 44    
Maximum Humidity 63    
Minimum Humidity 13    
Precipitation  
Precipitation 0.00 in - - ()
Sea Level Pressure  
Sea Level Pressure 30.21 in    
Wind  
Wind Speed 3 mph ()    
Max Wind Speed 14 mph    
Max Gust Speed -    
Visibility 6.2 miles    
Events      
Averages and records for this station are not official NWS values.
T = Trace of Precipitation, MM = Missing Value Source: Averaged Metar Reports

Daily Weather History Graph

Daily Weather History Graph

Search for Another Location

Airport or City:

Astronomy

Aug. 19, 2019 Rise Set
Actual Time 5:52 AM +03 6:33 PM +03
Civil Twilight 5:29 AM +03 6:56 PM +03
Nautical Twilight 5:03 AM +03 7:22 PM +03
Astronomical Twilight 4:36 AM +03 7:49 PM +03
Moon 9:13 PM +03 (8/19) 8:49 AM +03 (8/19)
Length of Visible Light 13h 26m
Length of Day
12h 41m
Waning Gibbous, 87% of the Moon is Illuminated
Aug 19
Waning Gibbous
Aug 23
Last Quarter
Aug 30
New
Sep 6
First Quarter
Sep 14
Full

Hourly Weather History & Observations

Time (+03) Temp. Heat Index Dew Point Humidity Pressure Visibility Wind Dir Wind Speed Gust Speed Precip Events Conditions
12:00 AM 68.0 °F - 51.8 °F 56% 30.21 in - Calm Calm - N/A   Clear
1:00 AM 68.0 °F - 53.6 °F 60% 30.18 in - Calm Calm - N/A   Clear
2:00 AM 68.0 °F - 51.8 °F 56% 30.18 in - Calm Calm - N/A   Clear
5:00 AM 62.6 °F - 50.0 °F 63% 30.18 in - Calm Calm - N/A   Clear
6:00 AM 62.6 °F - 48.2 °F 59% 30.21 in - SSW 4.6 mph - N/A   Clear
8:00 AM 68.0 °F - 46.4 °F 46% 30.24 in - Calm Calm - N/A   Clear
9:00 AM 78 °F - 48 °F 24%  in 6 mi NNE 5.8 mph - -  
9:00 AM 77.0 °F - 48.2 °F 36% 30.24 in - NNE 5.8 mph - N/A   Clear
10:00 AM 78.8 °F - 39.2 °F 24% 30.24 in - ENE 3.5 mph - N/A   Clear
12:00 PM 84.2 °F - 32.0 °F 15% 30.21 in 6.2 mi SSW 5.8 mph - N/A   Partly Cloudy
1:00 PM 86.0 °F - 30.2 °F 13% 30.21 in 6.2 mi South 8.1 mph - N/A   Scattered Clouds
2:00 PM 86.0 °F - 44.6 °F 23% 30.18 in 6.2 mi SSW 13.8 mph - N/A   Scattered Clouds
3:00 PM 80.6 °F 80.5 °F 55.4 °F 42% 30.18 in 6.2 mi South 8.1 mph - N/A   Partly Cloudy
4:00 PM 78.8 °F - 55.4 °F 44% 30.18 in 6.2 mi SW 11.5 mph - N/A   Partly Cloudy
5:00 PM 78.8 °F - 53.6 °F 42% 30.18 in 6.2 mi SSW 4.6 mph - N/A   Partly Cloudy
6:00 PM 77.0 °F - 53.6 °F 44% 30.18 in 6.2 mi SSW 4.6 mph - N/A   Partly Cloudy
7:00 PM 73.4 °F - 57.2 °F 57% 30.21 in 6.2 mi SSW 6.9 mph - N/A   Partly Cloudy
8:00 PM 73.4 °F - 59.0 °F 61% 30.21 in 6.2 mi SSW 5.8 mph - N/A   Scattered Clouds
9:00 PM 75.2 °F - 57.2 °F 53% 30.24 in 6.2 mi Calm Calm - N/A   Scattered Clouds
11:00 PM 73.4 °F - 55.4 °F 53% 30.24 in - Calm Calm - N/A   Clear